Terminal Aerodrome Forecast
Issued by NWS

Home | Current Version | Previous Version | Graphics & Text | Print | Product List | Glossary On
Versions: 1 2 3 4 5 6 7 8 9 10 11 12 13 14 15 16 17 18 19 20 21 22 23 24 25 26 27 28 29 30 31 32 33 34 35 36 37 38 39 40 41 42
000
FTUS43 KGRB 260900 AAA
TAFRHI
TAF AMD
KRHI 260906Z 2609/2706 00000KT 5SM BR SCT012 OVC045
     FM261300 00000KT 3SM BR OVC009
     FM261600 04003KT 5SM BR OVC004
     FM270200 03005KT 1SM -SN OVC006=

USA.gov is the U.S. government's official web portal to all federal, state and local government web resources and services.